Year,Month,Day,Hour,Minute,Value (Times are PST for temperature in C)
2011,05,25,00,00,11.60
2011,05,25,00,01,11.60
2011,05,25,00,02,11.60
2011,05,25,00,03,11.60
2011,05,25,00,04,11.60
2011,05,25,00,05,11.60
2011,05,25,00,06,11.60
2011,05,25,00,07,11.60
2011,05,25,00,08,11.60
2011,05,25,00,09,11.60
2011,05,25,00,10,11.60
2011,05,25,00,11,11.60
2011,05,25,00,12,11.60
2011,05,25,00,16,11.60
2011,05,25,00,17,11.60
2011,05,25,00,18,11.50
2011,05,25,00,19,11.40
2011,05,25,00,20,11.40
2011,05,25,00,21,11.40
2011,05,25,00,22,11.40
2011,05,25,00,23,11.40
2011,05,25,00,24,11.40
2011,05,25,00,25,11.40
2011,05,25,00,26,11.50
2011,05,25,00,27,11.40
2011,05,25,00,28,11.40
2011,05,25,00,29,11.40
2011,05,25,00,30,11.40
2011,05,25,00,31,11.40
2011,05,25,00,32,11.40
2011,05,25,00,33,11.40
2011,05,25,00,34,11.40
2011,05,25,00,35,11.40
2011,05,25,00,36,11.40
2011,05,25,00,37,11.40
2011,05,25,00,38,11.40
2011,05,25,00,39,11.40
2011,05,25,00,40,11.40
2011,05,25,00,41,11.40
2011,05,25,00,42,11.50
2011,05,25,00,43,11.60
2011,05,25,00,44,11.60
2011,05,25,00,45,11.60
2011,05,25,00,46,11.60
2011,05,25,00,47,11.60
2011,05,25,00,48,11.60
2011,05,25,00,49,11.60
2011,05,25,00,50,11.60
2011,05,25,00,51,11.60
2011,05,25,00,52,11.60
2011,05,25,00,53,11.60
2011,05,25,00,54,11.60
2011,05,25,00,55,11.60
2011,05,25,00,56,11.60
2011,05,25,00,57,11.60
2011,05,25,00,58,11.60
2011,05,25,00,59,11.60
2011,05,25,01,00,11.60
2011,05,25,01,01,11.60
2011,05,25,01,02,11.70
2011,05,25,01,03,11.70
2011,05,25,01,04,11.70
2011,05,25,01,05,11.70
2011,05,25,01,06,11.70
2011,05,25,01,07,11.80
2011,05,25,01,08,11.80
2011,05,25,01,09,11.80
2011,05,25,01,10,11.80
2011,05,25,01,11,11.80
2011,05,25,01,12,11.80
2011,05,25,01,13,11.80
2011,05,25,01,14,11.80
2011,05,25,01,15,11.80
2011,05,25,01,16,11.80
2011,05,25,01,17,11.80
2011,05,25,01,18,11.80
2011,05,25,01,19,11.80
2011,05,25,01,20,11.80
2011,05,25,01,21,11.80
2011,05,25,01,22,11.80
2011,05,25,01,23,11.80
2011,05,25,01,24,11.80
2011,05,25,01,25,11.80
2011,05,25,01,26,11.80
2011,05,25,01,27,11.70
2011,05,25,01,28,11.70
2011,05,25,01,29,11.70
2011,05,25,01,30,11.60
2011,05,25,01,31,11.60
2011,05,25,01,32,11.60
2011,05,25,01,33,11.60
2011,05,25,01,34,11.50
2011,05,25,01,35,11.40
2011,05,25,01,36,11.40
2011,05,25,01,37,11.40
2011,05,25,01,38,11.40
2011,05,25,01,39,11.40
2011,05,25,01,40,11.40
2011,05,25,01,41,11.40
2011,05,25,01,42,11.30
2011,05,25,01,43,11.30
2011,05,25,01,44,11.30
2011,05,25,01,45,11.30
2011,05,25,01,46,11.30
2011,05,25,01,47,11.30
2011,05,25,01,48,11.30
2011,05,25,01,49,11.30
2011,05,25,01,50,11.30
2011,05,25,01,51,11.30
2011,05,25,01,52,11.30
2011,05,25,01,53,11.30
2011,05,25,01,54,11.20
2011,05,25,01,55,11.20
2011,05,25,01,56,11.20
2011,05,25,01,57,11.20
2011,05,25,01,58,11.20
2011,05,25,01,59,11.20
2011,05,25,02,00,11.20
2011,05,25,02,01,11.20
2011,05,25,02,02,11.20
2011,05,25,02,03,11.10
2011,05,25,02,04,11.10
2011,05,25,02,05,11.10
2011,05,25,02,06,11.10
2011,05,25,02,07,11.10
2011,05,25,02,08,11.10
2011,05,25,02,09,11.10
2011,05,25,02,10,11.10
2011,05,25,02,11,11.10
2011,05,25,02,12,11.10
2011,05,25,02,13,11.10
2011,05,25,02,14,11.10
2011,05,25,02,15,11.10
2011,05,25,02,16,11.10
2011,05,25,02,17,11.10
2011,05,25,02,18,11.10
2011,05,25,02,19,11.10
2011,05,25,02,20,11.10
2011,05,25,02,21,11.10
2011,05,25,02,22,11.10
2011,05,25,02,23,11.10
2011,05,25,02,24,11.10
2011,05,25,02,25,11.10
2011,05,25,02,26,11.10
2011,05,25,02,27,11.10
2011,05,25,02,28,11.10
2011,05,25,02,29,11.10
2011,05,25,02,30,11.10
2011,05,25,02,31,11.10
2011,05,25,02,32,11.10
2011,05,25,02,33,11.10
2011,05,25,02,34,11.10
2011,05,25,02,35,11.10
2011,05,25,02,36,11.10
2011,05,25,02,37,11.10
2011,05,25,02,38,11.10
2011,05,25,02,39,11.10
2011,05,25,02,40,11.10
2011,05,25,02,41,11.10
2011,05,25,02,42,11.10
2011,05,25,02,43,11.10
2011,05,25,02,44,11.10
2011,05,25,02,45,11.10
2011,05,25,02,46,11.10
2011,05,25,02,47,11.10
2011,05,25,02,48,11.10
2011,05,25,02,49,11.10
2011,05,25,02,50,11.10
2011,05,25,02,51,11.10
2011,05,25,02,52,11.10
2011,05,25,02,53,11.10
2011,05,25,02,54,11.10
2011,05,25,02,55,11.10
2011,05,25,02,56,11.10
2011,05,25,02,57,11.10
2011,05,25,02,58,11.10
2011,05,25,02,59,11.10
2011,05,25,03,00,11.10
2011,05,25,03,01,11.10
2011,05,25,03,02,11.10
2011,05,25,03,03,11.10
2011,05,25,03,04,11.10
2011,05,25,03,05,11.10
2011,05,25,03,06,11.10
2011,05,25,03,07,11.10
2011,05,25,03,08,11.10
2011,05,25,03,09,11.10
2011,05,25,03,10,11.20
2011,05,25,03,11,11.20
2011,05,25,03,12,11.20
2011,05,25,03,13,11.20
2011,05,25,03,14,11.20
2011,05,25,03,15,11.20
2011,05,25,03,16,11.20
2011,05,25,03,17,11.20
2011,05,25,03,18,11.20
2011,05,25,03,19,11.20
2011,05,25,03,20,11.20
2011,05,25,03,21,11.20
2011,05,25,03,22,11.30
2011,05,25,03,23,11.30
2011,05,25,03,24,11.30
2011,05,25,03,25,11.30
2011,05,25,03,26,11.30
2011,05,25,03,27,11.30
2011,05,25,03,28,11.30
2011,05,25,03,29,11.30
2011,05,25,03,30,11.30
2011,05,25,03,31,11.20
2011,05,25,03,32,11.20
2011,05,25,03,33,11.20
2011,05,25,03,34,11.20
2011,05,25,03,35,11.20
2011,05,25,03,36,11.20
2011,05,25,03,37,11.20
2011,05,25,03,38,11.20
2011,05,25,03,39,11.20
2011,05,25,03,40,11.20
2011,05,25,03,41,11.30
2011,05,25,03,42,11.30
2011,05,25,03,43,11.30
2011,05,25,03,44,11.30
2011,05,25,03,45,11.30
2011,05,25,03,46,11.30
2011,05,25,03,47,11.30
2011,05,25,03,48,11.30
2011,05,25,03,49,11.30
2011,05,25,03,50,11.30
2011,05,25,03,51,11.30
2011,05,25,03,52,11.30
2011,05,25,03,53,11.30
2011,05,25,03,54,11.30
2011,05,25,03,55,11.30
2011,05,25,03,56,11.30
2011,05,25,03,57,11.30
2011,05,25,03,58,11.30
2011,05,25,03,59,11.30
2011,05,25,04,00,11.30
2011,05,25,04,01,11.30
2011,05,25,04,02,11.30
2011,05,25,04,03,11.30
2011,05,25,04,04,11.30
2011,05,25,04,05,11.30
2011,05,25,04,06,11.30
2011,05,25,04,07,11.30
2011,05,25,04,08,11.30
2011,05,25,04,09,11.30
2011,05,25,04,10,11.30
2011,05,25,04,11,11.30
2011,05,25,04,12,11.30
2011,05,25,04,13,11.30
2011,05,25,04,14,11.20
2011,05,25,04,15,11.20
2011,05,25,04,16,11.20
2011,05,25,04,17,11.20
2011,05,25,04,18,11.20
2011,05,25,04,19,11.20
2011,05,25,04,20,11.20
2011,05,25,04,21,11.20
2011,05,25,04,22,11.20
2011,05,25,04,23,11.10
2011,05,25,04,24,11.10
2011,05,25,04,25,11.20
2011,05,25,04,26,11.20
2011,05,25,04,27,11.20
2011,05,25,04,28,11.10
2011,05,25,04,29,11.10
2011,05,25,04,30,11.10
2011,05,25,04,31,11.10
2011,05,25,04,32,11.10
2011,05,25,04,33,11.10
2011,05,25,04,34,11.10
2011,05,25,04,35,11.10
2011,05,25,04,36,11.10
2011,05,25,04,37,11.10
2011,05,25,04,38,11.10
2011,05,25,04,39,11.10
2011,05,25,04,40,11.10
2011,05,25,04,41,11.10
2011,05,25,04,42,11.10
2011,05,25,04,43,11.10
2011,05,25,04,44,11.10
2011,05,25,04,45,11.10
2011,05,25,04,46,11.10
2011,05,25,04,47,11.10
2011,05,25,04,48,11.10
2011,05,25,04,49,11.10
2011,05,25,04,50,11.10
2011,05,25,04,51,11.10
2011,05,25,04,52,11.10
2011,05,25,04,53,11.10
2011,05,25,04,54,11.10
2011,05,25,04,55,11.10
2011,05,25,04,56,11.10
2011,05,25,04,57,11.10
2011,05,25,04,58,11.10
2011,05,25,04,59,11.10
2011,05,25,05,00,11.10
2011,05,25,05,01,11.10
2011,05,25,05,02,11.10
2011,05,25,05,03,11.10
2011,05,25,05,04,11.10
2011,05,25,05,05,11.10
2011,05,25,05,06,11.10
2011,05,25,05,07,11.10
2011,05,25,05,08,11.10
2011,05,25,05,09,11.10
2011,05,25,05,10,11.10
2011,05,25,05,11,11.10
2011,05,25,05,12,11.10
2011,05,25,05,13,11.10
2011,05,25,05,14,11.10
2011,05,25,05,15,11.10
2011,05,25,05,16,11.10
2011,05,25,05,17,11.10
2011,05,25,05,18,11.10
2011,05,25,05,19,11.10
2011,05,25,05,20,11.10
2011,05,25,05,21,11.10
2011,05,25,05,22,11.00
2011,05,25,05,23,10.90
2011,05,25,05,24,11.00
2011,05,25,05,25,10.90
2011,05,25,05,26,10.90
2011,05,25,05,27,10.90
2011,05,25,05,28,10.90
2011,05,25,05,29,10.90
2011,05,25,05,30,10.90
2011,05,25,05,31,10.90
2011,05,25,05,32,10.90
2011,05,25,05,33,10.90
2011,05,25,05,34,10.90
2011,05,25,05,35,10.90
2011,05,25,05,36,10.90
2011,05,25,05,37,10.90
2011,05,25,05,38,10.90
2011,05,25,05,39,10.90
2011,05,25,05,40,10.90
2011,05,25,05,41,10.90
2011,05,25,05,42,10.90
2011,05,25,05,43,10.90
2011,05,25,05,44,10.90
2011,05,25,05,45,10.90
2011,05,25,05,46,10.90
2011,05,25,05,47,10.90
2011,05,25,05,48,10.90
2011,05,25,05,49,10.90
2011,05,25,05,50,10.90
2011,05,25,05,51,11.10
2011,05,25,05,52,11.10
2011,05,25,05,53,11.10
2011,05,25,05,54,11.10
2011,05,25,05,55,11.10
2011,05,25,05,56,11.10
2011,05,25,05,57,11.10
2011,05,25,05,58,11.10
2011,05,25,05,59,11.10
2011,05,25,06,00,11.10
2011,05,25,06,01,11.10
2011,05,25,06,02,11.10
2011,05,25,06,03,10.90
2011,05,25,06,04,10.90
2011,05,25,06,05,10.90
2011,05,25,06,06,10.90
2011,05,25,06,07,10.90
2011,05,25,06,08,10.90
2011,05,25,06,09,10.90
2011,05,25,06,10,10.90
2011,05,25,06,11,10.90
2011,05,25,06,12,11.00
2011,05,25,06,13,11.10
2011,05,25,06,14,11.10
2011,05,25,06,15,11.10
2011,05,25,06,16,11.10
2011,05,25,06,17,11.10
2011,05,25,06,18,11.10
2011,05,25,06,19,11.10
2011,05,25,06,20,11.10
2011,05,25,06,21,11.10
2011,05,25,06,22,11.10
2011,05,25,06,23,11.10
2011,05,25,06,24,11.10
2011,05,25,06,25,11.10
2011,05,25,06,26,11.10
2011,05,25,06,27,11.10
2011,05,25,06,28,11.10
2011,05,25,06,29,11.10
2011,05,25,06,30,11.10
2011,05,25,06,31,11.10
2011,05,25,06,32,11.10
2011,05,25,06,33,11.10
2011,05,25,06,34,11.10
2011,05,25,06,35,11.10
2011,05,25,06,36,11.10
2011,05,25,06,37,11.10
2011,05,25,06,38,11.10
2011,05,25,06,39,11.10
2011,05,25,06,40,11.10
2011,05,25,06,41,11.10
2011,05,25,06,42,11.10
2011,05,25,06,43,11.10
2011,05,25,06,44,11.10
2011,05,25,06,45,11.10
2011,05,25,06,46,11.10
2011,05,25,06,47,11.10
2011,05,25,06,48,11.10
2011,05,25,06,49,11.10
2011,05,25,06,50,11.10
2011,05,25,06,51,11.10
2011,05,25,06,52,11.20
2011,05,25,06,53,11.20
2011,05,25,06,54,11.20
2011,05,25,06,55,11.20
2011,05,25,06,56,11.20
2011,05,25,06,57,11.30
2011,05,25,06,58,11.30
2011,05,25,06,59,11.30
2011,05,25,07,00,11.30
2011,05,25,07,01,11.30
2011,05,25,07,02,11.40
2011,05,25,07,03,11.40
2011,05,25,07,04,11.40
2011,05,25,07,05,11.40
2011,05,25,07,06,11.40
2011,05,25,07,07,11.40
2011,05,25,07,08,11.40
2011,05,25,07,09,11.40
2011,05,25,07,10,11.60
2011,05,25,07,11,11.60
2011,05,25,07,12,11.60
2011,05,25,07,13,11.60
2011,05,25,07,14,11.60
2011,05,25,07,15,11.60
2011,05,25,07,16,11.60
2011,05,25,07,17,11.60
2011,05,25,07,18,11.60
2011,05,25,07,19,11.60
2011,05,25,07,20,11.60
2011,05,25,07,21,11.60
2011,05,25,07,22,11.60
2011,05,25,07,23,11.60
2011,05,25,07,24,11.60
2011,05,25,07,25,11.60
2011,05,25,07,26,11.60
2011,05,25,07,27,11.60
2011,05,25,07,28,11.70
2011,05,25,07,29,11.70
2011,05,25,07,30,11.70
2011,05,25,07,31,11.70
2011,05,25,07,32,11.70
2011,05,25,07,33,11.80
2011,05,25,07,34,11.80
2011,05,25,07,35,11.80
2011,05,25,07,36,11.80
2011,05,25,07,37,11.80
2011,05,25,07,38,11.80
2011,05,25,07,39,11.80
2011,05,25,07,40,11.80
2011,05,25,07,41,11.80
2011,05,25,07,42,11.80
2011,05,25,07,43,11.80
2011,05,25,07,44,11.80
2011,05,25,07,45,11.80
2011,05,25,07,46,11.80
2011,05,25,07,47,11.80
2011,05,25,07,48,11.80
2011,05,25,07,49,11.80
2011,05,25,07,50,11.90
2011,05,25,07,51,11.90
2011,05,25,07,52,11.90
2011,05,25,07,53,12.00
2011,05,25,07,54,12.00
2011,05,25,07,55,12.00
2011,05,25,07,56,12.00
2011,05,25,07,57,12.00
2011,05,25,07,58,12.00
2011,05,25,07,59,12.00
2011,05,25,08,00,12.00
2011,05,25,08,01,12.00
2011,05,25,08,02,12.00
2011,05,25,08,03,12.00
2011,05,25,08,04,12.00
2011,05,25,08,05,12.00
2011,05,25,08,06,12.00
2011,05,25,08,07,12.00
2011,05,25,08,08,12.00
2011,05,25,08,09,12.00
2011,05,25,08,10,12.00
2011,05,25,08,11,12.00
2011,05,25,08,12,12.00
2011,05,25,08,13,12.00
2011,05,25,08,14,12.00
2011,05,25,08,15,12.10
2011,05,25,08,16,12.10
2011,05,25,08,17,12.10
2011,05,25,08,18,12.10
2011,05,25,08,19,12.20
2011,05,25,08,20,12.20
2011,05,25,08,21,12.20
2011,05,25,08,22,12.30
2011,05,25,08,23,12.30
2011,05,25,08,24,12.30
2011,05,25,08,25,12.30
2011,05,25,08,26,12.30
2011,05,25,08,27,12.30
2011,05,25,08,28,12.40
2011,05,25,08,29,12.40
2011,05,25,08,30,12.40
2011,05,25,08,31,12.30
2011,05,25,08,32,12.30
2011,05,25,08,33,12.30
2011,05,25,08,34,12.30
2011,05,25,08,35,12.40
2011,05,25,08,36,12.40
2011,05,25,08,37,12.40
2011,05,25,08,38,12.40
2011,05,25,08,39,12.40
2011,05,25,08,40,12.40
2011,05,25,08,41,12.40
2011,05,25,08,42,12.40
2011,05,25,08,43,12.40
2011,05,25,08,44,12.40
2011,05,25,08,45,12.40
2011,05,25,08,46,12.40
2011,05,25,08,47,12.40
2011,05,25,08,48,12.40
2011,05,25,08,49,12.40
2011,05,25,08,50,12.40
2011,05,25,08,51,12.40
2011,05,25,08,52,12.50
2011,05,25,08,53,12.40
2011,05,25,08,54,12.40
2011,05,25,08,55,12.40
2011,05,25,08,56,12.40
2011,05,25,08,57,12.50
2011,05,25,08,58,12.50
2011,05,25,08,59,12.50
2011,05,25,09,00,12.50
2011,05,25,09,01,12.50
2011,05,25,09,02,12.50
2011,05,25,09,03,12.50
2011,05,25,09,04,12.50
2011,05,25,09,05,12.50
2011,05,25,09,06,12.50
2011,05,25,09,07,12.50
2011,05,25,09,08,12.60
2011,05,25,09,09,12.60
2011,05,25,09,10,12.60
2011,05,25,09,11,12.60
2011,05,25,09,12,12.60
2011,05,25,09,13,12.60
2011,05,25,09,14,12.60
2011,05,25,09,15,12.60
2011,05,25,09,16,12.60
2011,05,25,09,17,12.60
2011,05,25,09,18,12.60
2011,05,25,09,19,12.60
2011,05,25,09,20,12.60
2011,05,25,09,21,12.60
2011,05,25,09,22,12.60
2011,05,25,09,23,12.60
2011,05,25,09,24,12.60
2011,05,25,09,25,12.60
2011,05,25,09,26,12.60
2011,05,25,09,27,12.60
2011,05,25,09,28,12.60
2011,05,25,09,29,12.60
2011,05,25,09,30,12.70
2011,05,25,09,31,12.70
2011,05,25,09,32,12.70
2011,05,25,09,33,12.70
2011,05,25,09,34,12.70
2011,05,25,09,35,12.70
2011,05,25,09,36,12.70
2011,05,25,09,37,12.70
2011,05,25,09,38,12.70
2011,05,25,09,39,12.70
2011,05,25,09,40,12.70
2011,05,25,09,41,12.70
2011,05,25,09,42,12.70
2011,05,25,09,43,12.70
2011,05,25,09,44,12.70
2011,05,25,09,45,12.80
2011,05,25,09,46,12.80
2011,05,25,09,47,12.80
2011,05,25,09,48,12.80
2011,05,25,09,49,12.80
2011,05,25,09,50,12.80
2011,05,25,09,51,12.70
2011,05,25,09,52,12.70
2011,05,25,09,53,12.80
2011,05,25,09,54,12.80
2011,05,25,09,55,12.80
2011,05,25,09,56,12.70
2011,05,25,09,57,12.70
2011,05,25,09,58,12.70
2011,05,25,09,59,12.60
2011,05,25,10,00,12.60
2011,05,25,10,01,12.60
2011,05,25,10,02,12.60
2011,05,25,10,03,12.60
2011,05,25,10,04,12.60
2011,05,25,10,05,12.60
2011,05,25,10,06,12.60
2011,05,25,10,07,12.60
2011,05,25,10,08,12.60
2011,05,25,10,09,12.60
2011,05,25,10,10,12.50
2011,05,25,10,11,12.50
2011,05,25,10,12,12.50
2011,05,25,10,13,12.60
2011,05,25,10,14,12.60
2011,05,25,10,15,12.50
2011,05,25,10,16,12.50
2011,05,25,10,17,12.50
2011,05,25,10,18,12.50
2011,05,25,10,19,12.50
2011,05,25,10,20,12.40
2011,05,25,10,21,12.40
2011,05,25,10,22,12.40
2011,05,25,10,23,12.40
2011,05,25,10,24,12.40
2011,05,25,10,25,12.40
2011,05,25,10,26,12.40
2011,05,25,10,27,12.40
2011,05,25,10,28,12.40
2011,05,25,10,29,12.40
2011,05,25,10,30,12.40
2011,05,25,10,31,12.40
2011,05,25,10,32,12.40
2011,05,25,10,33,12.40
2011,05,25,10,34,12.40
2011,05,25,10,35,12.40
2011,05,25,10,36,12.40
2011,05,25,10,37,12.40
2011,05,25,10,38,12.40
2011,05,25,10,39,12.50
2011,05,25,10,40,12.50
2011,05,25,10,41,12.50
2011,05,25,10,42,12.50
2011,05,25,10,43,12.50
2011,05,25,10,44,12.40
2011,05,25,10,45,12.50
2011,05,25,10,46,12.50
2011,05,25,10,47,12.50
2011,05,25,10,48,12.50
2011,05,25,10,49,12.60
2011,05,25,10,50,12.60
2011,05,25,10,51,12.60
2011,05,25,10,52,12.70
2011,05,25,10,53,12.70
2011,05,25,10,54,12.70
2011,05,25,10,55,12.70
2011,05,25,10,56,12.80
2011,05,25,10,57,12.80
2011,05,25,10,58,12.80
2011,05,25,10,59,12.80
2011,05,25,11,00,12.80
2011,05,25,11,01,12.80
2011,05,25,11,02,12.80
2011,05,25,11,03,12.80
2011,05,25,11,04,12.80
2011,05,25,11,05,12.80
2011,05,25,11,06,12.80
2011,05,25,11,07,12.70
2011,05,25,11,08,12.80
2011,05,25,11,09,12.80
2011,05,25,11,10,12.80
2011,05,25,11,11,12.80
2011,05,25,11,12,12.80
2011,05,25,11,13,12.80
2011,05,25,11,14,12.80
2011,05,25,11,15,12.80
2011,05,25,11,16,12.80
2011,05,25,11,17,12.80
2011,05,25,11,18,12.80
2011,05,25,11,19,12.80
2011,05,25,11,20,12.80
2011,05,25,11,21,12.80
2011,05,25,11,22,12.80
2011,05,25,11,23,12.80
2011,05,25,11,24,12.80
2011,05,25,11,25,12.80
2011,05,25,11,26,12.80
2011,05,25,11,27,12.90
2011,05,25,11,28,12.90
2011,05,25,11,29,12.90
2011,05,25,11,30,13.00
2011,05,25,11,31,13.00
2011,05,25,11,32,13.00
2011,05,25,11,33,13.00
2011,05,25,11,34,13.00
2011,05,25,11,35,13.10
2011,05,25,11,36,13.10
2011,05,25,11,37,13.10
2011,05,25,11,38,13.10
2011,05,25,11,39,13.20
2011,05,25,11,40,13.20
2011,05,25,11,41,13.30
2011,05,25,11,42,13.30
2011,05,25,11,43,13.30
2011,05,25,11,44,13.30
2011,05,25,11,45,13.40
2011,05,25,11,46,13.40
2011,05,25,11,47,13.40
2011,05,25,11,48,13.50
2011,05,25,11,49,13.50
2011,05,25,11,50,13.50
2011,05,25,11,51,13.60
2011,05,25,11,52,13.60
2011,05,25,11,53,13.60
2011,05,25,11,54,13.70
2011,05,25,11,55,13.70
2011,05,25,11,56,13.70
2011,05,25,11,57,13.70
2011,05,25,11,58,13.70
2011,05,25,11,59,13.70
2011,05,25,12,00,13.70
2011,05,25,12,01,13.70
2011,05,25,12,02,13.70
2011,05,25,12,03,13.70
2011,05,25,12,04,13.70
2011,05,25,12,05,13.70
2011,05,25,12,06,13.70
2011,05,25,12,07,13.80
2011,05,25,12,08,13.80
2011,05,25,12,09,13.80
2011,05,25,12,10,13.80
2011,05,25,12,11,13.70
2011,05,25,12,12,13.70
2011,05,25,12,13,13.70
2011,05,25,12,14,13.70
2011,05,25,12,15,13.70
2011,05,25,12,16,13.70
2011,05,25,12,17,13.70
2011,05,25,12,18,13.70
2011,05,25,12,19,13.70
2011,05,25,12,20,13.80
2011,05,25,12,21,13.80
2011,05,25,12,22,13.90
2011,05,25,12,23,13.90
2011,05,25,12,24,13.90
2011,05,25,12,25,13.90
2011,05,25,12,26,14.00
2011,05,25,12,27,14.00
2011,05,25,12,28,14.00
2011,05,25,12,29,13.90
2011,05,25,12,30,13.80
2011,05,25,12,31,13.70
2011,05,25,12,32,13.70
2011,05,25,12,33,13.70
2011,05,25,12,34,13.70
2011,05,25,12,35,13.70
2011,05,25,12,36,13.70
2011,05,25,12,37,13.70
2011,05,25,12,38,13.70
2011,05,25,12,39,13.70
2011,05,25,12,40,13.80
2011,05,25,12,41,13.80
2011,05,25,12,42,13.90
2011,05,25,12,43,13.90
2011,05,25,12,44,13.90
2011,05,25,12,45,13.90
2011,05,25,12,46,13.90
2011,05,25,12,47,14.00
2011,05,25,12,48,14.00
2011,05,25,12,49,14.00
2011,05,25,12,50,14.00
2011,05,25,12,51,13.90
2011,05,25,12,52,13.90
2011,05,25,12,53,13.90
2011,05,25,12,54,13.90
2011,05,25,12,55,13.80
2011,05,25,12,56,13.80
2011,05,25,12,57,13.80
2011,05,25,12,58,13.80
2011,05,25,12,59,13.90
2011,05,25,13,00,13.90
2011,05,25,13,01,13.90
2011,05,25,13,02,13.90
2011,05,25,13,03,13.80
2011,05,25,13,04,13.80
2011,05,25,13,05,13.80
2011,05,25,13,06,13.80
2011,05,25,13,07,13.80
2011,05,25,13,08,13.80
2011,05,25,13,09,13.80
2011,05,25,13,10,13.90
2011,05,25,13,11,13.90
2011,05,25,13,12,13.90
2011,05,25,13,13,13.80
2011,05,25,13,14,13.80
2011,05,25,13,15,13.90
2011,05,25,13,16,13.90
2011,05,25,13,17,13.90
2011,05,25,13,18,14.00
2011,05,25,13,19,14.00
2011,05,25,13,20,14.00
2011,05,25,13,21,14.00
2011,05,25,13,22,14.00
2011,05,25,13,23,14.10
2011,05,25,13,24,14.10
2011,05,25,13,25,14.10
2011,05,25,13,26,14.00
2011,05,25,13,27,14.00
2011,05,25,13,28,14.00
2011,05,25,13,29,14.00
2011,05,25,13,30,14.00
2011,05,25,13,31,14.00
2011,05,25,13,32,14.00
2011,05,25,13,33,14.00
2011,05,25,13,34,14.00
2011,05,25,13,35,14.00
2011,05,25,13,36,14.10
2011,05,25,13,37,14.10
2011,05,25,13,38,14.10
2011,05,25,13,39,14.10
2011,05,25,13,40,14.10
2011,05,25,13,41,14.10
2011,05,25,13,42,14.00
2011,05,25,13,43,14.00
2011,05,25,13,44,13.90
2011,05,25,13,45,13.90
2011,05,25,13,46,13.90
2011,05,25,13,47,13.90
2011,05,25,13,48,13.90
2011,05,25,13,49,13.90
2011,05,25,13,50,13.80
2011,05,25,13,51,13.80
2011,05,25,13,52,13.80
2011,05,25,13,53,13.80
2011,05,25,13,54,13.80
2011,05,25,13,55,13.80
2011,05,25,13,56,13.80
2011,05,25,13,57,13.80
2011,05,25,13,58,13.80
2011,05,25,13,59,13.80
2011,05,25,14,00,13.70
2011,05,25,14,01,13.80
2011,05,25,14,02,13.80
2011,05,25,14,03,13.80
2011,05,25,14,04,13.80
2011,05,25,14,05,13.80
2011,05,25,14,06,13.80
2011,05,25,14,07,13.80
2011,05,25,14,08,13.90
2011,05,25,14,09,13.90
2011,05,25,14,10,13.90
2011,05,25,14,11,13.90
2011,05,25,14,12,13.90
2011,05,25,14,13,13.90
2011,05,25,14,14,13.80
2011,05,25,14,15,13.80
2011,05,25,14,16,13.80
2011,05,25,14,17,13.80
2011,05,25,14,18,13.90
2011,05,25,14,19,13.90
2011,05,25,14,20,13.90
2011,05,25,14,21,13.90
2011,05,25,14,22,14.00
2011,05,25,14,23,14.00
2011,05,25,14,24,14.00
2011,05,25,14,25,14.00
2011,05,25,14,26,14.00
2011,05,25,14,27,14.10
2011,05,25,14,28,14.00
2011,05,25,14,29,14.10
2011,05,25,14,30,14.10
2011,05,25,14,31,14.00
2011,05,25,14,32,14.00
2011,05,25,14,33,14.00
2011,05,25,14,34,14.00
2011,05,25,14,35,14.10
2011,05,25,14,36,14.00
2011,05,25,14,37,14.10
2011,05,25,14,38,14.10
2011,05,25,14,39,14.10
2011,05,25,14,40,14.10
2011,05,25,14,41,14.10
2011,05,25,14,42,14.00
2011,05,25,14,43,14.00
2011,05,25,14,44,14.00
2011,05,25,14,45,14.00
2011,05,25,14,46,14.00
2011,05,25,14,47,14.00
2011,05,25,14,48,13.90
2011,05,25,14,49,13.90
2011,05,25,14,50,13.80
2011,05,25,14,51,13.70
2011,05,25,14,52,13.60
2011,05,25,14,53,13.50
2011,05,25,14,54,13.40
2011,05,25,14,55,13.30
2011,05,25,14,56,13.30
2011,05,25,14,57,13.20
2011,05,25,14,58,13.20
2011,05,25,14,59,13.10
2011,05,25,15,00,13.00
2011,05,25,15,01,12.80
2011,05,25,15,02,12.80
2011,05,25,15,03,12.80
2011,05,25,15,04,12.80
2011,05,25,15,05,12.80
2011,05,25,15,06,12.70
2011,05,25,15,07,12.70
2011,05,25,15,08,12.60
2011,05,25,15,09,12.60
2011,05,25,15,10,12.60
2011,05,25,15,11,12.60
2011,05,25,15,12,12.60
2011,05,25,15,13,12.60
2011,05,25,15,14,12.50
2011,05,25,15,15,12.50
2011,05,25,15,16,12.50
2011,05,25,15,17,12.60
2011,05,25,15,18,12.60
2011,05,25,15,19,12.60
2011,05,25,15,20,12.50
2011,05,25,15,21,12.50
2011,05,25,15,22,12.50
2011,05,25,15,23,12.50
2011,05,25,15,24,12.40
2011,05,25,15,25,12.30
2011,05,25,15,26,12.30
2011,05,25,15,27,12.30
2011,05,25,15,28,12.30
2011,05,25,15,29,12.30
2011,05,25,15,30,12.30
2011,05,25,15,31,12.30
2011,05,25,15,32,12.30
2011,05,25,15,33,12.30
2011,05,25,15,34,12.30
2011,05,25,15,35,12.30
2011,05,25,15,36,12.30
2011,05,25,15,37,12.30
2011,05,25,15,38,12.30
2011,05,25,15,39,12.30
2011,05,25,15,40,12.30
2011,05,25,15,41,12.30
2011,05,25,15,42,12.20
2011,05,25,15,43,12.20
2011,05,25,15,44,12.20
2011,05,25,15,45,12.10
2011,05,25,15,46,12.00
2011,05,25,15,47,12.00
2011,05,25,15,48,12.00
2011,05,25,15,49,12.00
2011,05,25,15,50,12.00
2011,05,25,15,51,11.90
2011,05,25,15,52,11.90
2011,05,25,15,53,11.90
2011,05,25,15,54,11.90
2011,05,25,15,55,11.90
2011,05,25,15,56,12.00
2011,05,25,15,57,12.00
2011,05,25,15,58,12.00
2011,05,25,15,59,12.00
2011,05,25,16,00,12.00
2011,05,25,16,01,12.00
2011,05,25,16,02,12.00
2011,05,25,16,03,12.00
2011,05,25,16,04,12.00
2011,05,25,16,05,11.90
2011,05,25,16,06,11.90
2011,05,25,16,07,11.80
2011,05,25,16,08,11.80
2011,05,25,16,09,11.70
2011,05,25,16,10,11.70
2011,05,25,16,11,11.60
2011,05,25,16,12,11.60
2011,05,25,16,13,11.60
2011,05,25,16,14,11.60
2011,05,25,16,15,11.50
2011,05,25,16,16,11.40
2011,05,25,16,17,11.40
2011,05,25,16,18,11.40
2011,05,25,16,19,11.40
2011,05,25,16,20,11.30
2011,05,25,16,21,11.30
2011,05,25,16,22,11.20
2011,05,25,16,23,11.20
2011,05,25,16,24,11.30
2011,05,25,16,25,11.30
2011,05,25,16,26,11.20
2011,05,25,16,27,11.20
2011,05,25,16,28,11.20
2011,05,25,16,29,11.20
2011,05,25,16,30,11.20
2011,05,25,16,31,11.20
2011,05,25,16,32,11.10
2011,05,25,16,33,11.10
2011,05,25,16,34,11.10
2011,05,25,16,35,11.10
2011,05,25,16,36,11.10
2011,05,25,16,37,11.10
2011,05,25,16,38,11.10
2011,05,25,16,39,11.00
2011,05,25,16,40,10.90
2011,05,25,16,41,10.90
2011,05,25,16,42,10.90
2011,05,25,16,43,10.90
2011,05,25,16,44,10.90
2011,05,25,16,45,11.00
2011,05,25,16,46,11.00
2011,05,25,16,47,10.90
2011,05,25,16,48,10.90
2011,05,25,16,49,10.90
2011,05,25,16,50,10.90
2011,05,25,16,51,10.90
2011,05,25,16,52,10.90
2011,05,25,16,53,10.90
2011,05,25,16,54,10.90
2011,05,25,16,55,10.90
2011,05,25,16,56,10.90
2011,05,25,16,57,10.90
2011,05,25,16,58,11.00
2011,05,25,16,59,11.10
2011,05,25,17,00,11.10
2011,05,25,17,01,11.00
2011,05,25,17,02,11.10
2011,05,25,17,03,11.10
2011,05,25,17,04,11.10
2011,05,25,17,05,11.10
2011,05,25,17,06,11.10
2011,05,25,17,07,11.10
2011,05,25,17,08,11.10
2011,05,25,17,09,11.10
2011,05,25,17,10,11.10
2011,05,25,17,11,11.10
2011,05,25,17,12,11.10
2011,05,25,17,13,11.10
2011,05,25,17,14,11.10
2011,05,25,17,15,11.00
2011,05,25,17,16,10.90
2011,05,25,17,17,10.90
2011,05,25,17,18,10.90
2011,05,25,17,19,10.90
2011,05,25,17,20,10.90
2011,05,25,17,21,10.90
2011,05,25,17,22,10.90